(158962) = 2004 RA211

Discovered at Socorro on 2004-09-11 by LINEAR.

Orbit

Orbit type: Main Belt

Note: WebGL enabled browser required.

epoch2024-03-31.0
epoch JD2460400.5
perihelion date2020-03-25.39226
perihelion JD2458933.89226
argument of perihelion (°)340.71792
ascending node (°)320.02968
inclination (°)17.09680
eccentricity0.1151129
perihelion distance (AU)2.7260832
Tisserand w.r.t. Jupiter3.2
ΔV w.r.t. Earth (km/sec)11.6
semimajor axis (AU)3.0807129
mean anomaly (°)267.32586
mean daily motion (°/day)0.18227500
aphelion distance (AU)3.435
period (years)5.41
P-vector [x]0.52063112
P-vector [y]-0.73963282
P-vector [z]-0.42648157
Q-vector [x]0.83263270
Q-vector [y]0.32935870
Q-vector [z]0.44524783
absolute magnitude14.76
phase slope0.15
uncertainty0
referenceMPEC 2024-F14
observations used822
oppositions16
arc length (days)8511
first opposition used2000
last opposition used2024
residual rms (arc-secs)0.69
perturbers coarse indicatorM-v
perturbers precise indicator003Ek
first observation date used2000-11-27.0
last observation date used2024-03-17.0
computer nameMPCLINUX
JD of orbit computation2456376.479022
perihelion JD uncertainty (days)1.9100E-04
argument of perihelion uncertainty (°)3.6067E-05
ascending node uncertainty (°)1.9790E-05
inclination uncertainty (°)8.3267E-06
eccentricity uncertainty 7.9625E-08
perihelion distance uncertainty (AU)2.5689E-07
Minimum Orbit Intersection Distances (in AU)
for orbit epoch: 2460400.5, reference: E2024-GH2
Mercury2.28125
Venus1.99903
Earth1.7163
Mars1.32878
Jupiter1.86734
Saturn5.69551
Uranus15.086
Neptune26.7379

Observations

846 total observations over interval: 2000 11 27.288422 – 2024 03 17.227824
These data are available for download (format description).

Date (UT) J2000 RA J2000 Dec Magn Location Ref
2000 11 27.288422 07 52 11.042 +35 22 24.58 20.47 V 645 – Apache Point-Sloan Digital Sky Survey MPS 210135
2000 11 27.291894 07 52 10.970 +35 22 24.98 21.13   645 – Apache Point-Sloan Digital Sky Survey MPS 210135
2002 03 09.24554 10 55 15.96 -05 32 36.8 19.3   644 – Palomar Mountain/NEAT MPS 115337
2002 03 09.26570 10 55 14.89 -05 32 34.3 19.7   644 – Palomar Mountain/NEAT MPS 115337
2002 03 09.28713 10 55 13.78 -05 32 32.4 20.2   644 – Palomar Mountain/NEAT MPS 115337
2002 04 09.14029 10 32 56.55 -04 21 50.9 19.8   644 – Palomar Mountain/NEAT MPS 115337
2002 04 09.15126 10 32 56.23 -04 21 49.3 20.1   644 – Palomar Mountain/NEAT MPS 115337
2002 04 09.16205 10 32 55.92 -04 21 47.8 19.9   644 – Palomar Mountain/NEAT MPS 115337
2004 08 19.31973 23 44 24.63 +11 51 00.0 19.4   704 – Lincoln Laboratory ETS, New Mexico MPS 114542
2004 08 19.32963 23 44 24.08 +11 51 03.6 19.5   704 – Lincoln Laboratory ETS, New Mexico MPS 114542
2004 08 19.33954 23 44 23.79 +11 51 05.6 19.8   704 – Lincoln Laboratory ETS, New Mexico MPS 114542
2004 09 11.23444 23 25 24.02 +12 34 33.8 18.6   704 – Lincoln Laboratory ETS, New Mexico MPS 113254
2004 09 11.24619 23 25 23.34 +12 34 33.6 18.7   704 – Lincoln Laboratory ETS, New Mexico MPS 113254
2004 09 11.25799 23 25 22.65 +12 34 33.6 18.9   704 – Lincoln Laboratory ETS, New Mexico MPS 113254
2004 09 11.26988 23 25 22.01 +12 34 33.4 19.6   704 – Lincoln Laboratory ETS, New Mexico MPS 113254
2004 09 11.28224 23 25 21.27 +12 34 33.4 18.9   704 – Lincoln Laboratory ETS, New Mexico MPS 113254
2004 09 14.25124 23 22 35.99 +12 33 29.1 18.7   704 – Lincoln Laboratory ETS, New Mexico MPS 113254
2004 09 14.26253 23 22 35.29 +12 33 28.0 19.2   704 – Lincoln Laboratory ETS, New Mexico MPS 113254
2004 09 14.27381 23 22 34.76 +12 33 28.6 19.5   704 – Lincoln Laboratory ETS, New Mexico MPS 113254
2004 09 14.28509 23 22 34.05 +12 33 27.3 19.2   704 – Lincoln Laboratory ETS, New Mexico MPS 113254
2004 09 14.29637 23 22 33.40 +12 33 27.1 19.2   704 – Lincoln Laboratory ETS, New Mexico MPS 113254
2004 09 17.26744 23 19 48.74 +12 31 00.0 19.1   704 – Lincoln Laboratory ETS, New Mexico MPS 114542
2004 09 17.27911 23 19 48.10 +12 30 58.7 19.6   704 – Lincoln Laboratory ETS, New Mexico MPS 114542
2004 09 17.29079 23 19 47.40 +12 30 59.0 19.7   704 – Lincoln Laboratory ETS, New Mexico MPS 114542
2004 09 17.30247 23 19 46.71 +12 30 58.3 19.5   704 – Lincoln Laboratory ETS, New Mexico MPS 114542
2004 09 17.31415 23 19 46.06 +12 30 56.0 19.4   704 – Lincoln Laboratory ETS, New Mexico MPS 114542
2004 09 18.23831 23 18 55.38 +12 29 55.2 18.8   704 – Lincoln Laboratory ETS, New Mexico MPS 114542
2004 09 18.24226 23 18 55.17 +12 29 55.0 18.7   704 – Lincoln Laboratory ETS, New Mexico MPS 114542
2004 09 18.25020 23 18 54.73 +12 29 54.6 18.9   704 – Lincoln Laboratory ETS, New Mexico MPS 114542
2004 09 18.25455 23 18 54.46 +12 29 54.4 18.8   704 – Lincoln Laboratory ETS, New Mexico MPS 114542
2004 09 18.26203 23 18 54.01 +12 29 54.0 19.1   704 – Lincoln Laboratory ETS, New Mexico MPS 114542
2004 09 18.26675 23 18 53.75 +12 29 53.4 18.9   704 – Lincoln Laboratory ETS, New Mexico MPS 114542
2004 09 18.27385 23 18 53.34 +12 29 52.6 19.1   704 – Lincoln Laboratory ETS, New Mexico MPS 114542
2004 09 18.27889 23 18 53.10 +12 29 52.8 18.9   704 – Lincoln Laboratory ETS, New Mexico MPS 114542
2004 09 18.28567 23 18 52.70 +12 29 52.7 19.3   704 – Lincoln Laboratory ETS, New Mexico MPS 114542
2004 09 18.29106 23 18 52.41 +12 29 51.9 18.7   704 – Lincoln Laboratory ETS, New Mexico MPS 114542
2004 09 21.23082 23 16 13.09 +12 25 48.7 18.7   704 – Lincoln Laboratory ETS, New Mexico MPS 114542
2004 09 21.24308 23 16 12.39 +12 25 47.6 18.6   704 – Lincoln Laboratory ETS, New Mexico MPS 114542
2004 09 21.25549 23 16 11.72 +12 25 46.6 19.2   704 – Lincoln Laboratory ETS, New Mexico MPS 114542
2004 09 21.26799 23 16 11.01 +12 25 45.1 18.4   704 – Lincoln Laboratory ETS, New Mexico MPS 114542
2004 09 21.28034 23 16 10.33 +12 25 44.3 18.7   704 – Lincoln Laboratory ETS, New Mexico MPS 114542
2004 09 22.22538 23 15 20.04 +12 24 12.3 19.1   704 – Lincoln Laboratory ETS, New Mexico MPS 114542
2004 09 22.23325 23 15 19.65 +12 24 11.3 19.1   704 – Lincoln Laboratory ETS, New Mexico MPS 114542
2004 09 22.24627 23 15 18.93 +12 24 09.2 19.2   704 – Lincoln Laboratory ETS, New Mexico MPS 114542
2004 09 22.25950 23 15 18.25 +12 24 08.9 19.6   704 – Lincoln Laboratory ETS, New Mexico MPS 114542
2004 09 22.26472 23 15 17.85 +12 24 08.3 18.9   704 – Lincoln Laboratory ETS, New Mexico MPS 114542
2004 09 22.27281 23 15 17.46 +12 24 07.4 19.1   704 – Lincoln Laboratory ETS, New Mexico MPS 114542
2004 09 22.27810 23 15 17.17 +12 24 06.9 18.7   704 – Lincoln Laboratory ETS, New Mexico MPS 114542
2004 09 22.28604 23 15 16.72 +12 24 05.9 18.9   704 – Lincoln Laboratory ETS, New Mexico MPS 114542
2004 09 24.23270 23 13 34.77 +12 20 35.9 18.9   704 – Lincoln Laboratory ETS, New Mexico MPS 114542
2004 09 24.24617 23 13 33.98 +12 20 35.3 19.1   704 – Lincoln Laboratory ETS, New Mexico MPS 114542
2004 09 24.25933 23 13 33.29 +12 20 32.7 19.3   704 – Lincoln Laboratory ETS, New Mexico MPS 114542
2004 09 24.27263 23 13 32.61 +12 20 32.6 18.6   704 – Lincoln Laboratory ETS, New Mexico MPS 114542
2004 09 24.28618 23 13 31.86 +12 20 29.4 18.9   704 – Lincoln Laboratory ETS, New Mexico MPS 114542
2004 10 12.16743 23 00 34.17 +11 35 00.1 18.8 R 699 – Lowell Observatory-LONEOS MPS 116711
2004 10 12.18688 23 00 33.55 +11 34 56.3   699 – Lowell Observatory-LONEOS MPS 116711
2004 10 12.20636 23 00 32.84 +11 34 52.7   699 – Lowell Observatory-LONEOS MPS 116711
2004 10 12.22585 23 00 32.23 +11 34 48.5   699 – Lowell Observatory-LONEOS MPS 116711
2006 11 25.48582 10 04 16.50 +15 00 28.0 20.6 V G96 – Mt. Lemmon Survey MPS 190489
2006 11 25.49309 10 04 16.68 +15 00 26.6 20.7 V G96 – Mt. Lemmon Survey MPS 190489
2006 11 25.50035 10 04 16.82 +15 00 24.0 21.0 V G96 – Mt. Lemmon Survey MPS 190489
2006 11 25.51112 10 04 17.07 +15 00 21.9 20.9 V G96 – Mt. Lemmon Survey MPS 190489
2007 01 24.40007 09 52 07.82 +13 13 05.0 19.7 V 703 – Catalina Sky Survey MPS 197052
2007 01 24.40850 09 52 07.42 +13 13 06.0 19.8 V 703 – Catalina Sky Survey MPS 197052
2007 01 24.41684 09 52 06.92 +13 13 05.0 19.4 V 703 – Catalina Sky Survey MPS 197052
2007 01 24.42526 09 52 06.60 +13 13 06.0 19.1 V 703 – Catalina Sky Survey MPS 197052
2007 01 28.35873 09 48 56.70 +13 14 41.8 19.6 V G96 – Mt. Lemmon Survey MPS 198127
2007 01 28.36832 09 48 56.16 +13 14 42.1 19.4 V G96 – Mt. Lemmon Survey MPS 198127
2007 01 28.37797 09 48 55.76 +13 14 42.5 19.4 V G96 – Mt. Lemmon Survey MPS 198127
2007 01 28.38760 09 48 55.26 +13 14 42.9 19.5 V G96 – Mt. Lemmon Survey MPS 198127
2007 02 06.25460 09 41 13.52 +13 19 53.6   691 – Steward Observatory, Kitt Peak-Spacewatch MPS 198705
2007 02 06.27294 09 41 12.52 +13 19 54.5   691 – Steward Observatory, Kitt Peak-Spacewatch MPS 198705
2007 02 06.29104 09 41 11.51 +13 19 55.2   691 – Steward Observatory, Kitt Peak-Spacewatch MPS 198705
2007 02 07.17682 09 40 23.77 +13 20 29.7   691 – Steward Observatory, Kitt Peak-Spacewatch MPS 198705
2007 02 07.19451 09 40 22.81 +13 20 30.6   691 – Steward Observatory, Kitt Peak-Spacewatch MPS 198705
2007 02 07.21219 09 40 21.84 +13 20 31.3   691 – Steward Observatory, Kitt Peak-Spacewatch MPS 198705
2007 02 11.58246 09 36 23.81 +13 23 25.3 19.1 R D29 – Purple Mountain Observatory, XuYi Station MPS 205956
2007 02 11.60851 09 36 22.33 +13 23 25.3 19.7 R D29 – Purple Mountain Observatory, XuYi Station MPS 205956
2007 02 11.63431 09 36 20.91 +13 23 27.5 19.3 R D29 – Purple Mountain Observatory, XuYi Station MPS 205956
2007 02 13.30635 09 34 49.48 +13 24 31.1 19.6   704 – Lincoln Laboratory ETS, New Mexico MPS 199477
2007 02 13.31747 09 34 48.93 +13 24 33.8 19.4   704 – Lincoln Laboratory ETS, New Mexico MPS 199477
2007 02 13.32866 09 34 48.25 +13 24 33.7 19.8   704 – Lincoln Laboratory ETS, New Mexico MPS 199477
2007 02 13.33977 09 34 47.65 +13 24 34.4 19.7   704 – Lincoln Laboratory ETS, New Mexico MPS 199477
2007 02 16.30201 09 32 06.41 +13 26 25.5 19.8 R 644 – Palomar Mountain/NEAT MPS 200375
2007 02 16.32236 09 32 05.27 +13 26 26.4 19.2 R 644 – Palomar Mountain/NEAT MPS 200375
